Вернуться в каталог

STARLINK-32203

АктивенСвязьVLEO
NORAD 60331·PAYLOAD·🇺🇸 United States

Запущен Aug 2, 2024 с Cape Canaveral Space Force Station

Loading…

Ближайшие Пролёты (ближайшие 24 часа)

TLE

СвежийSource: CelesTrak SupGP

Эпоха: Sep 15, 2026, 02:41 UTC

1 60331C 24136C   26258.11229167 -.00022324  00000+0 -65941-3 0  2581
2 60331  53.1576 262.5729 0001305  94.7037 228.8913 15.34409517    17

Отслеживайте STARLINK-32203 в реальном времени с AllMySat

Download on the App Store